User: anonymous   Login
Location: Unspecified
(0.0000°N, 0.0000°E)
Time: 21:38:49
(UTC+00:00)
Language:

Elektron 1 - Orbit

View from above orbital plane
View from above orbital plane
View from above satellite
View from above satellite

Ground track
Ground track

The orbit data is extracted from the following two-line orbital elements,

1   746U 64006A   17234.91476157 +.00000319 +00000-0 +99261-4 0  9994
2   746 060.8322 194.2361 3038058 124.0391 268.7022 09.03278682775655
Epoch (UTC): 22 August 2017 21:57:15
Eccentricity: 0.3038058
inclination: 60.8322°
perigee height: 402 km
apogee height: 6320 km
right ascension of ascending node: 194.2361°
argument of perigee: 124.0391°
revolutions per day: 9.03278682
mean anomaly at epoch: 268.7022°
orbit number at epoch: 77565

The dashed part of the orbit path shows where the satellite is in the earth's shadow,  

DLR